Find Starlink 31496

NORAD ID: 59211 Int'l Des: 2024-046 Owner: SPXS Country: US Constellation: starlink operational
LEOCIRCULAR

Live-Position

3D-Globus wird geladen...

Über Starlink 31496

Beschreibung wird geladen...

Nächste Überflüge

Passes for default location (London). Set your location on the main map for personalized predictions.

Höhenverlauf

Loading altitude history...

Zweizeiliger Elementsatz

1 59211U 24046L 26121.36947442 -.00000063 00000-0 10000-4 0 9990
2 59211 53.1608 257.9688 0001330 113.8978 246.2162 15.30198671121280
Epoch: 1. Mai 2026 • Age: 10 hours

Aktueller Status

Höhe 478.3 km
Geschwindigkeit 7.63 km/s
Subsatellitenpunkt 39.76°N, 157.18°E
Startdatum 11. März 2024
Alter 2.1 years
Typ internet

Technische Details

Klassifizierung Payload
Masse 730.00 kg
Trockenmasse 700.00 kg
Gesamtmasse 730.00 kg
Länge 0.30 m
Durchmesser 4.10 m
Spannweite 29.00 m
Form Box + pan
Hersteller SPXS
Bus-Typ Starlink V2M
Phasenstatus In Orbit
Besitzer/Staat SPXS/US

Most Searched